FW4620 Weather Reports


time (UTC)temp
F
wind
direction
speed
knots
gust
knots
rain 1hr
in
rain 24hr
in
rain mn
in
humidity
%
barometer
mb
20260510153051 79 232 0.0 1.7 0.00 0.00 0.00 49 1014.6
20260510151548 77 219 0.9 5.2 0.00 0.00 0.00 54 1014.6
20260510150044 75 223 0.9 3.5 0.00 0.00 0.00 55 1014.7
20260510144539 74 176 0.0 2.6 0.00 0.00 0.00 59 1014.6
20260510143039 73 316 0.0 2.6 0.00 0.00 0.00 58 1014.5
20260510141531 71 228 0.0 3.5 0.00 0.00 0.00 61 1014.4
20260510140027 70 249 0.9 3.5 0.00 0.00 0.00 64 1014.4
20260510134524 68 46 0.0 4.3 0.00 0.00 0.00 71 1014.4
20260510133022 66 157 0.0 0.9 0.00 0.00 0.00 78 1014.3
20260510131515 64 198 1.7 3.5 0.00 0.00 0.00 84 1014.5
20260510130013 62 13 0.0 2.6 0.00 0.00 0.00 90 1014.3
20260510124512 59 58 0.0 1.7 0.00 0.00 0.00 98 1014.2
20260510123013 58 40 0.0 1.7 0.00 0.00 0.00 100 1014.2
20260510121509 57 270 0.0 0.9 0.00 0.00 0.00 100 1013.9
20260510120008 56 270 0.0 0.0 0.00 0.00 0.00 100 1013.7
20260510114507 53 270 0.0 0.0 0.00 0.00 0.00 99 1013.6
20260510113005 52 270 0.0 0.0 0.00 0.00 0.00 99 1013.4
20260510111502 51 270 0.0 0.0 0.00 0.00 0.00 98 1013.2
20260510110101 51 270 0.0 0.0 0.00 0.00 0.00 97 1013.1
20260510104603 51 270 0.0 0.0 0.00 0.00 0.00 97 1013.0
20260510103057 52 270 0.0 0.9 0.00 0.00 0.00 97 1012.7
20260510101555 52 270 0.0 0.0 0.00 0.00 0.00 97 1012.7
20260510100054 52 270 0.0 0.0 0.00 0.00 0.00 97 1012.4
20260510094552 53 270 0.0 0.0 0.00 0.00 0.00 97 1012.1
20260510093101 53 270 0.0 0.0 0.00 0.00 0.00 96 1011.8
20260510091545 54 270 0.0 0.0 0.00 0.00 0.00 96 1012.0
20260510090053 55 270 0.0 0.9 0.00 0.00 0.00 96 1011.9
20260510084541 55 190 0.0 0.9 0.00 0.00 0.00 96 1011.6
20260510083039 55 182 0.0 0.0 0.00 0.00 0.00 96 1011.6
20260510081538 56 182 0.0 0.9 0.00 0.00 0.00 95 1011.5
20260510080041 56 182 0.0 0.9 0.00 0.00 0.00 95 1011.4
20260510074533 57 182 0.0 0.0 0.00 0.00 0.00 94 1011.4
20260510073030 58 182 0.0 0.0 0.00 0.00 0.00 94 1011.3
20260510071529 58 182 0.0 0.0 0.00 0.00 0.00 93 1011.3
20260510070029 59 182 0.0 0.0 0.00 0.00 0.00 92 1011.3
20260510064528 60 182 0.0 1.7 0.00 0.00 0.00 92 1011.4
20260510063021 61 181 0.0 0.9 0.00 0.00 0.00 90 1011.3
20260510061520 62 181 0.0 1.7 0.00 0.00 0.00 90 1011.5
20260510060019 62 206 0.0 2.6 0.00 0.00 0.00 89 1011.6
20260510054521 63 227 0.0 2.6 0.00 0.00 0.00 89 1011.5
20260510053017 63 165 0.0 3.5 0.00 0.00 0.00 88 1011.7
20260510051517 63 228 0.0 2.6 0.00 0.00 0.00 87 1011.7
20260510050020 63 181 0.9 3.5 0.00 0.00 0.00 87 1011.6
20260510044515 63 182 0.0 1.7 0.00 0.00 0.00 87 1011.6
20260510043019 62 176 0.0 1.7 0.00 0.00 0.00 88 1011.7
20260510041507 61 187 0.0 0.0 0.00 0.00 0.00 89 1011.5
20260510040008 60 187 0.0 0.0 0.00 0.00 0.00 88 1011.4
20260510034504 61 187 0.0 0.0 0.00 0.00 0.00 86 1011.4
20260510033003 61 187 0.0 0.0 0.00 0.00 0.00 85 1011.4
20260510031503 62 187 0.0 0.0 0.00 0.00 0.00 85 1011.2
20260510030004 62 187 0.0 0.0 0.00 0.00 0.00 83 1011.1
20260510024501 62 187 0.0 1.7 0.00 0.00 0.00 83 1010.9
20260510023001 62 187 0.0 0.0 0.00 0.00 0.00 83 1011.1
20260510021502 63 187 0.0 0.0 0.00 0.00 0.00 83 1010.9
20260510020001 63 187 0.0 0.0 0.00 0.00 0.00 82 1010.5
20260510014604 63 187 0.0 0.0 0.00 0.00 0.00 81 1010.1
20260510014501 64 187 0.0 0.0 0.00 0.00 0.00 81 1010.1
20260510013059 64 187 0.0 0.0 0.00 0.00 0.00 80 1010.1
20260510011600 65 187 0.0 0.0 0.00 0.00 0.00 79 1010.0
20260510010136 66 187 0.0 0.0 0.00 0.00 0.00 76 1009.7
20260510004600 67 187 0.0 0.9 0.00 0.00 0.00 75 1009.5
20260510003100 67 187 0.0 0.0 0.00 0.00 0.00 73 1009.3
20260510001604 69 187 0.0 0.0 0.00 0.00 0.00 71 1009.2
20260510000057 70 187 0.0 0.9 0.00 0.00 0.00 68 1009.0
20260509234628 72 187 0.0 0.9 0.00 0.00 0.00 64 1008.8
20260509233055 73 187 0.0 0.9 0.00 0.00 0.00 63 1008.6
20260509231554 73 203 0.0 2.6 0.00 0.00 0.00 61 1008.8
20260509230053 74 173 0.0 2.6 0.00 0.00 0.00 60 1008.7
20260509224552 74 225 0.0 2.6 0.00 0.00 0.00 58 1008.7
20260509223052 75 203 0.9 3.5 0.00 0.00 0.00 57 1008.6
20260509221551 75 142 0.0 3.5 0.00 0.00 0.00 56 1008.6
20260509220050 75 155 1.7 5.2 0.00 0.00 0.00 56 1008.5
20260509214550 75 165 0.9 4.3 0.00 0.00 0.00 55 1008.5
20260509213050 76 175 0.9 7.8 0.00 0.00 0.00 53 1008.4
20260509211553 77 237 1.7 7.0 0.00 0.00 0.00 53 1008.3
20260509210047 77 188 1.7 8.7 0.00 0.00 0.00 52 1008.3
20260509204545 77 234 1.7 7.0 0.00 0.00 0.00 54 1008.5
20260509203100 75 260 0.9 3.5 0.00 0.00 0.00 61 1008.3
20260509201537 74 165 0.0 3.5 0.00 0.00 0.00 62 1008.6
20260509200036 73 174 0.9 5.2 0.00 0.00 0.00 61 1008.7
20260509194541 72 189 0.9 7.0 0.00 0.00 0.00 61 1009.0
20260509193033 73 167 0.9 5.2 0.00 0.00 0.00 61 1009.2
20260509191534 73 355 0.9 5.2 0.00 0.00 0.00 61 1009.3
20260509190025 72 180 0.9 4.3 0.00 0.00 0.00 60 1009.5
20260509183036 73 165 2.6 7.0 0.00 0.00 0.00 58 1009.8
20260509181532 73 208 1.7 6.1 0.00 0.00 0.00 56 1010.0
20260509180028 74 61 1.7 8.7 0.00 0.00 0.00 56 1010.1
20260509174523 73 153 0.9 8.7 0.00 0.00 0.00 59 1010.3
20260509173017 73 140 1.7 9.6 0.00 0.00 0.00 58 1010.3
20260509171517 74 194 2.6 8.7 0.00 0.00 0.00 57 1010.3
20260509170012 73 281 3.5 7.0 0.00 0.00 0.00 57 1010.5
20260509164507 73 194 0.9 3.5 0.00 0.00 0.00 61 1010.9
20260509163008 73 184 3.5 9.6 0.00 0.00 0.00 58 1011.3
20260509161503 72 192 2.6 7.0 0.00 0.00 0.00 60 1011.1
20260509160058 71 128 1.7 7.8 0.00 0.00 0.00 63 1011.2
20260509154556 70 184 1.7 7.8 0.00 0.00 0.00 65 1011.4